| time (UTC) | temp F | wind direction | speed MPH | gust MPH | rain 1hr in | rain 24hr in | rain mn in | humidity % | barometer mb |
| 20260905194548 | 63 | 271 | 0.0 | 0.0 | 0.00 | 0.21 | 0.21 | 63 | 1022.9 |
| 20260905193045 | 64 | 272 | 0.0 | 0.0 | 0.00 | 0.21 | 0.21 | 61 | 1022.8 |
| 20260905191544 | 64 | 254 | 0.0 | 0.0 | 0.00 | 0.21 | 0.21 | 59 | 1022.7 |
| 20260905190044 | 65 | 251 | 0.0 | 0.0 | 0.00 | 0.21 | 0.21 | 58 | 1022.5 |
| 20260905184540 | 66 | 250 | 0.0 | 0.0 | 0.00 | 0.21 | 0.21 | 56 | 1022.1 |
| 20260905183038 | 66 | 242 | 0.0 | 0.0 | 0.00 | 0.21 | 0.21 | 54 | 1021.9 |
| 20260905181537 | 68 | 242 | 0.0 | 0.0 | 0.00 | 0.21 | 0.21 | 52 | 1021.7 |
| 20260905180037 | 68 | 242 | 0.0 | 0.0 | 0.00 | 0.21 | 0.21 | 50 | 1021.3 |
| 20260905174533 | 69 | 278 | 3.0 | 9.0 | 0.00 | 0.21 | 0.21 | 48 | 1021.2 |
| 20260905173029 | 70 | 255 | 5.0 | 15.0 | 0.00 | 0.21 | 0.21 | 46 | 1020.8 |
| 20260905171541 | 71 | 249 | 5.0 | 13.0 | 0.00 | 0.21 | 0.21 | 46 | 1020.8 |
| 20260905170030 | 72 | 270 | 5.0 | 11.0 | 0.00 | 0.21 | 0.21 | 46 | 1020.6 |
| 20260905164524 | 72 | 221 | 5.0 | 13.0 | 0.00 | 0.21 | 0.21 | 45 | 1020.5 |
| 20260905163024 | 74 | 215 | 6.0 | 14.0 | 0.00 | 0.21 | 0.21 | 43 | 1020.3 |
| 20260905161533 | 75 | 232 | 1.0 | 12.0 | 0.00 | 0.21 | 0.21 | 43 | 1020.1 |
| 20260905160003 | 74 | 246 | 8.0 | 17.0 | 0.00 | 0.21 | 0.21 | 43 | 1019.9 |
| 20260905154502 | 75 | 206 | 5.0 | 16.0 | 0.00 | 0.21 | 0.21 | 42 | 1019.7 |
| 20260905153100 | 75 | 259 | 6.0 | 16.0 | 0.00 | 0.21 | 0.21 | 41 | 1019.7 |
| 20260905151558 | 75 | 211 | 6.0 | 13.0 | 0.00 | 0.21 | 0.21 | 43 | 1019.6 |
| 20260905150058 | 75 | 209 | 8.0 | 14.0 | 0.00 | 0.21 | 0.21 | 43 | 1019.5 |
| 20260905144557 | 75 | 211 | 6.0 | 12.0 | 0.00 | 0.21 | 0.21 | 45 | 1019.4 |
| 20260905143055 | 76 | 184 | 8.0 | 14.0 | 0.00 | 0.21 | 0.21 | 47 | 1019.5 |
| 20260905141555 | 75 | 232 | 5.0 | 13.0 | 0.00 | 0.21 | 0.21 | 50 | 1019.5 |
| 20260905140054 | 75 | 207 | 10.0 | 19.0 | 0.00 | 0.21 | 0.21 | 48 | 1019.5 |
| 20260905134556 | 74 | 196 | 7.0 | 14.0 | 0.00 | 0.21 | 0.21 | 49 | 1019.5 |
| 20260905133052 | 76 | 188 | 8.0 | 14.0 | 0.00 | 0.21 | 0.21 | 47 | 1019.4 |
| 20260905131547 | 75 | 202 | 8.0 | 16.0 | 0.00 | 0.21 | 0.21 | 49 | 1019.4 |
| 20260905130046 | 74 | 200 | 9.0 | 20.0 | 0.00 | 0.21 | 0.21 | 50 | 1019.5 |
| 20260905124549 | 75 | 193 | 9.0 | 15.0 | 0.00 | 0.21 | 0.21 | 52 | 1019.4 |
| 20260905123042 | 74 | 186 | 8.0 | 15.0 | 0.00 | 0.21 | 0.21 | 55 | 1019.4 |
| 20260905121541 | 74 | 231 | 8.0 | 15.0 | 0.00 | 0.21 | 0.21 | 60 | 1019.5 |
| 20260905120039 | 73 | 200 | 7.0 | 12.0 | 0.00 | 0.21 | 0.21 | 64 | 1019.3 |
| 20260905114539 | 73 | 360 | 9.0 | 16.0 | 0.00 | 0.21 | 0.21 | 63 | 1019.3 |
| 20260905113037 | 73 | 174 | 6.0 | 18.0 | 0.00 | 0.21 | 0.21 | 61 | 1019.2 |
| 20260905111536 | 72 | 360 | 9.0 | 14.0 | 0.00 | 0.21 | 0.21 | 63 | 1019.3 |
| 20260905110036 | 69 | 221 | 4.0 | 9.0 | 0.00 | 0.21 | 0.21 | 71 | 1019.4 |
| 20260905104543 | 68 | 255 | 4.0 | 10.0 | 0.00 | 0.21 | 0.21 | 70 | 1019.5 |
| 20260905103036 | 70 | 188 | 5.0 | 13.0 | 0.00 | 0.21 | 0.21 | 67 | 1019.5 |
| 20260905101537 | 69 | 190 | 9.0 | 16.0 | 0.00 | 0.21 | 0.21 | 66 | 1019.6 |
| 20260905100031 | 69 | 204 | 6.0 | 10.0 | 0.00 | 0.21 | 0.21 | 71 | 1019.4 |
| 20260905094529 | 68 | 202 | 6.0 | 12.0 | 0.00 | 0.21 | 0.21 | 75 | 1019.6 |
| 20260905093026 | 66 | 188 | 4.0 | 13.0 | 0.00 | 0.21 | 0.21 | 78 | 1019.6 |
| 20260905091524 | 66 | 238 | 5.0 | 9.0 | 0.00 | 0.21 | 0.21 | 78 | 1019.6 |
| 20260905090023 | 66 | 250 | 6.0 | 13.0 | 0.00 | 0.21 | 0.21 | 78 | 1019.4 |
| 20260905084528 | 65 | 225 | 4.0 | 12.0 | 0.00 | 0.21 | 0.21 | 80 | 1019.2 |
| 20260905083020 | 65 | 200 | 4.0 | 10.0 | 0.00 | 0.21 | 0.21 | 82 | 1019.2 |
| 20260905081518 | 64 | 175 | 3.0 | 7.0 | 0.00 | 0.21 | 0.21 | 84 | 1019.2 |
| 20260905080032 | 62 | 180 | 2.0 | 8.0 | 0.00 | 0.21 | 0.21 | 84 | 1019.3 |
| 20260905074513 | 62 | 360 | 4.0 | 8.0 | 0.00 | 0.21 | 0.21 | 84 | 1019.2 |
| 20260905073029 | 61 | 173 | 2.0 | 9.0 | 0.00 | 0.21 | 0.21 | 82 | 1018.9 |
| 20260905071509 | 61 | 171 | 2.0 | 7.0 | 0.00 | 0.21 | 0.21 | 78 | 1018.9 |
| 20260905070107 | 60 | 176 | 2.0 | 6.0 | 0.00 | 0.21 | 0.21 | 76 | 1018.8 |
| 20260905064504 | 60 | 360 | 2.0 | 11.0 | 0.00 | 0.21 | 0.21 | 75 | 1018.8 |
| 20260905063003 | 59 | 360 | 0.0 | 0.0 | 0.00 | 0.21 | 0.21 | 75 | 1018.6 |
| 20260905061503 | 59 | 360 | 0.0 | 0.0 | 0.00 | 0.21 | 0.21 | 75 | 1018.6 |
| 20260905054559 | 59 | 360 | 0.0 | 0.0 | 0.00 | 0.21 | 0.21 | 75 | 1018.4 |
| 20260905053057 | 59 | 206 | 0.0 | 0.0 | 0.00 | 0.21 | 0.21 | 75 | 1018.1 |
| 20260905051553 | 59 | 360 | 0.0 | 0.0 | 0.00 | 0.21 | 0.21 | 77 | 1017.9 |
| 20260905050051 | 59 | 360 | 0.0 | 0.0 | 0.00 | 0.21 | 0.21 | 77 | 1017.6 |
| 20260905044550 | 59 | 360 | 0.0 | 0.0 | 0.01 | 0.21 | 0.21 | 77 | 1017.4 |
| 20260905043109 | 59 | 188 | 0.0 | 0.0 | 0.01 | 0.21 | 0.21 | 78 | 1017.4 |
| 20260905041545 | 59 | 174 | 0.0 | 0.0 | 0.01 | 0.21 | 0.21 | 78 | 1017.0 |
| 20260905040109 | 59 | 173 | 0.0 | 0.0 | 0.01 | 0.21 | 0.21 | 79 | 1016.9 |
| 20260905034543 | 59 | 174 | 0.0 | 0.0 | 0.00 | 0.20 | 0.20 | 79 | 1016.7 |
| 20260905033043 | 59 | 192 | 0.0 | 0.0 | 0.02 | 0.20 | 0.20 | 80 | 1016.7 |
| 20260905031541 | 59 | 178 | 0.0 | 0.0 | 0.06 | 0.20 | 0.20 | 80 | 1016.7 |
| 20260905030043 | 59 | 360 | 0.0 | 0.0 | 0.06 | 0.20 | 0.20 | 81 | 1016.9 |
| 20260905024539 | 59 | 360 | 0.0 | 0.0 | 0.06 | 0.20 | 0.20 | 81 | 1016.9 |
| 20260905023043 | 59 | 360 | 0.0 | 0.0 | 0.05 | 0.18 | 0.18 | 82 | 1016.7 |
| 20260905021544 | 59 | 360 | 0.0 | 0.0 | 0.02 | 0.14 | 0.14 | 83 | 1016.8 |
| 20260905020037 | 59 | 360 | 0.0 | 0.0 | 0.02 | 0.14 | 0.14 | 83 | 1016.7 |
| 20260905014534 | 59 | 188 | 0.0 | 0.0 | 0.05 | 0.14 | 0.14 | 84 | 1016.4 |
| 20260905013033 | 60 | 182 | 0.0 | 0.0 | 0.06 | 0.13 | 0.13 | 84 | 1016.4 |
| 20260905011531 | 60 | 180 | 0.0 | 0.0 | 0.05 | 0.12 | 0.12 | 84 | 1015.7 |
| 20260905010029 | 60 | 180 | 0.0 | 0.0 | 0.10 | 0.12 | 0.12 | 84 | 1015.6 |
| 20260905004525 | 61 | 229 | 0.0 | 0.0 | 0.07 | 0.09 | 0.09 | 83 | 1015.6 |
| 20260905003024 | 62 | 229 | 0.0 | 0.0 | 0.05 | 0.07 | 0.07 | 80 | 1015.4 |
| 20260905001521 | 63 | 229 | 0.0 | 12.0 | 0.05 | 0.07 | 0.07 | 75 | 1015.1 |
| 20260905000029 | 64 | 226 | 5.0 | 13.0 | 0.00 | 0.02 | 0.02 | 71 | 1015.1 |
| 20260904234612 | 64 | 187 | 3.0 | 7.0 | 0.01 | 0.02 | 0.02 | 72 | 1014.7 |
| 20260904233009 | 65 | 227 | 5.0 | 12.0 | 0.02 | 0.02 | 0.02 | 68 | 1014.4 |
| 20260904231508 | 65 | 286 | 5.0 | 14.0 | 0.02 | 0.02 | 0.02 | 69 | 1014.7 |
| 20260904230008 | 65 | 222 | 8.0 | 25.0 | 0.02 | 0.02 | 0.02 | 71 | 1014.5 |
| 20260904224502 | 68 | 231 | 8.0 | 25.0 | 0.01 | 0.01 | 0.01 | 69 | 1014.4 |
| 20260904223059 | 70 | 236 | 10.0 | 26.0 | 0.00 | 0.00 | 0.00 | 69 | 1014.0 |
| 20260904221553 | 73 | 263 | 14.0 | 36.0 | 0.00 | 0.00 | 0.00 | 69 | 1013.6 |
| 20260904220107 | 75 | 267 | 7.0 | 16.0 | 0.00 | 0.00 | 0.00 | 65 | 1012.6 |
| 20260904214547 | 75 | 247 | 6.0 | 14.0 | 0.00 | 0.00 | 0.00 | 62 | 1012.1 |
| 20260904213046 | 75 | 205 | 0.0 | 0.0 | 0.00 | 0.00 | 0.00 | 60 | 1011.9 |
| 20260904211552 | 76 | 205 | 0.0 | 5.0 | 0.00 | 0.00 | 0.00 | 59 | 1011.7 |
| 20260904210047 | 77 | 190 | 3.0 | 8.0 | 0.00 | 0.00 | 0.00 | 58 | 1011.3 |
| 20260904204542 | 77 | 360 | 3.0 | 9.0 | 0.00 | 0.00 | 0.00 | 57 | 1011.3 |
| 20260904203049 | 77 | 225 | 3.0 | 13.0 | 0.00 | 0.00 | 0.00 | 56 | 1011.3 |
| 20260904201541 | 78 | 188 | 4.0 | 10.0 | 0.00 | 0.00 | 0.00 | 56 | 1011.1 |
| 20260904200044 | 78 | 184 | 5.0 | 10.0 | 0.00 | 0.00 | 0.00 | 56 | 1011.1 |